BAW9038 EGLL-GCTS

Flight info

Callsign BAW9038
Flight time N/A
Altitude 26000
Route N0620F260 CPT Q63 CONKO SL2 C/5124N00350W/N0792F260F450 SL2 C/LESLU/M200F450F600 DCT EVBAK DIXIS DCT RIPEL UP47 ORTIS KONB2X BRICK/N0490F250 KONB2X
Aircraft CONC/H-SDFHIRY/C

Departure

Time N/A
Airport London Heathrow Airport (EGLL)

Arrival

Time 2026-04-29 13:00
Airport Tenerife Sur Airport (GCTS)
Time Latitude Longitude Altitude Speed Heading
2026-04-29 11:47 42.87879 -10.64515 55240 ft 1144 kts 193°
2026-04-29 11:48 42.72118 -10.69875 55288 ft 1144 kts 195°
2026-04-29 11:48 42.56787 -10.75723 55345 ft 1144 kts 197°
2026-04-29 11:49 42.41586 -10.82147 55409 ft 1144 kts 198°
2026-04-29 11:49 42.26505 -10.89037 55477 ft 1144 kts 199°
2026-04-29 11:50 42.11524 -10.96253 55542 ft 1144 kts 200°
2026-04-29 11:50 41.96603 -11.03739 55606 ft 1144 kts 201°
2026-04-29 11:51 41.81754 -11.11455 55669 ft 1143 kts 201°
2026-04-29 11:51 41.67103 -11.19342 55726 ft 1143 kts 202°
2026-04-29 11:52 41.52456 -11.27646 55780 ft 1143 kts 204°
2026-04-29 11:52 41.37943 -11.36298 55831 ft 1143 kts 205°
2026-04-29 11:53 41.23497 -11.45118 55880 ft 1143 kts 205°
2026-04-29 11:53 41.09073 -11.53993 55932 ft 1143 kts 205°
2026-04-29 11:54 40.94627 -11.62857 55980 ft 1143 kts 205°
2026-04-29 11:54 40.80161 -11.71571 56026 ft 1143 kts 204°
2026-04-29 11:55 40.65639 -11.80116 56070 ft 1143 kts 204°
2026-04-29 11:55 40.51083 -11.88554 56112 ft 1143 kts 204°
2026-04-29 11:56 40.36511 -11.96952 56152 ft 1143 kts 204°
2026-04-29 11:56 40.21954 -12.05378 56189 ft 1143 kts 204°
2026-04-29 11:57 40.07415 -12.13823 56223 ft 1143 kts 204°
2026-04-29 11:57 39.92870 -12.22259 56258 ft 1143 kts 204°
2026-04-29 11:58 39.78308 -12.30621 56295 ft 1143 kts 204°
2026-04-29 11:58 39.63731 -12.38903 56332 ft 1143 kts 204°
2026-04-29 11:59 39.49235 -12.47093 56368 ft 1143 kts 204°
2026-04-29 11:59 39.34663 -12.55325 56404 ft 1143 kts 204°
2026-04-29 12:00 39.20090 -12.63545 56439 ft 1143 kts 204°
2026-04-29 12:00 39.05515 -12.71713 56474 ft 1142 kts 204°
2026-04-29 12:01 38.90915 -12.79830 56509 ft 1142 kts 203°
2026-04-29 12:01 38.76307 -12.87923 56542 ft 1142 kts 203°
2026-04-29 12:02 38.64184 -12.94629 56572 ft 1142 kts 203°
2026-04-29 12:02 38.49590 -13.02670 56608 ft 1142 kts 203°
2026-04-29 12:03 38.34998 -13.10653 56642 ft 1142 kts 203°
2026-04-29 12:03 38.20384 -13.18617 56677 ft 1142 kts 203°
2026-04-29 12:04 38.05782 -13.26554 56711 ft 1142 kts 203°
2026-04-29 12:04 37.91166 -13.34456 56747 ft 1141 kts 203°
2026-04-29 12:05 37.76550 -13.42316 56780 ft 1141 kts 203°
2026-04-29 12:05 37.61910 -13.50167 56813 ft 1141 kts 203°
2026-04-29 12:06 37.47301 -13.57964 56846 ft 1141 kts 203°
2026-04-29 12:06 37.32758 -13.65688 56879 ft 1141 kts 203°
2026-04-29 12:07 37.18123 -13.73436 56912 ft 1141 kts 203°
2026-04-29 12:07 37.03489 -13.81146 56959 ft 1140 kts 203°
2026-04-29 12:08 36.88882 -13.88808 57002 ft 1137 kts 202°
2026-04-29 12:08 36.74294 -13.96434 57028 ft 1137 kts 202°
2026-04-29 12:09 36.59682 -14.04035 57053 ft 1138 kts 202°
2026-04-29 12:09 36.45074 -14.11606 57079 ft 1138 kts 202°
2026-04-29 12:10 36.30449 -14.19157 57110 ft 1138 kts 202°
2026-04-29 12:10 36.15821 -14.26667 57142 ft 1138 kts 202°
2026-04-29 12:11 36.01195 -14.34147 57175 ft 1138 kts 202°
2026-04-29 12:11 35.86564 -14.41612 57208 ft 1138 kts 202°
2026-04-29 12:12 35.71927 -14.49058 57241 ft 1138 kts 202°
2026-04-29 12:12 35.57287 -14.56463 57275 ft 1138 kts 202°
2026-04-29 12:13 35.42639 -14.63835 57307 ft 1138 kts 202°
2026-04-29 12:13 35.27971 -14.71200 57338 ft 1138 kts 202°
2026-04-29 12:14 35.13300 -14.78535 57370 ft 1138 kts 202°
2026-04-29 12:14 34.98628 -14.85835 57403 ft 1139 kts 202°
2026-04-29 12:15 34.83948 -14.93117 57436 ft 1139 kts 202°
2026-04-29 12:15 34.69357 -15.00324 57469 ft 1139 kts 202°
2026-04-29 12:16 34.54639 -15.07503 57508 ft 1138 kts 202°
2026-04-29 12:16 34.39925 -15.14608 57541 ft 1138 kts 202°
2026-04-29 12:17 34.25188 -15.21737 57611 ft 1140 kts 202°
2026-04-29 12:17 34.10496 -15.28891 57683 ft 1136 kts 202°
2026-04-29 12:18 33.95831 -15.36049 57704 ft 1138 kts 202°
2026-04-29 12:18 33.81152 -15.43180 57746 ft 1137 kts 202°
2026-04-29 12:19 33.66468 -15.50234 57780 ft 1137 kts 202°
2026-04-29 12:19 33.51761 -15.57246 57812 ft 1137 kts 202°
2026-04-29 12:20 33.37076 -15.64243 57841 ft 1136 kts 202°
2026-04-29 12:20 33.22394 -15.71243 57870 ft 1135 kts 202°
2026-04-29 12:21 33.07805 -15.78180 57900 ft 1134 kts 202°
2026-04-29 12:21 32.93142 -15.85099 57925 ft 1134 kts 201°
2026-04-29 12:22 32.78479 -15.91983 57949 ft 1133 kts 201°
2026-04-29 12:22 32.63807 -15.98864 57973 ft 1132 kts 201°
2026-04-29 12:23 32.49157 -16.05724 57995 ft 1132 kts 201°
2026-04-29 12:23 32.34501 -16.12546 58020 ft 1131 kts 201°
2026-04-29 12:24 32.19853 -16.19333 58042 ft 1130 kts 201°
2026-04-29 12:24 32.05239 -16.26089 58064 ft 1130 kts 201°
2026-04-29 12:25 31.90293 -16.31342 58058 ft 1120 kts 191°
2026-04-29 12:25 31.75319 -16.34063 58061 ft 1059 kts 187°
2026-04-29 12:26 31.68083 -16.35004 58063 ft 1031 kts 186°
2026-04-29 12:26 31.61047 -16.35793 58064 ft 1004 kts 185°
2026-04-29 12:26 31.54170 -16.36478 58066 ft 977 kts 185°
2026-04-29 12:26 31.47493 -16.37080 58067 ft 949 kts 184°
2026-04-29 12:27 31.40996 -16.37618 58068 ft 921 kts 184°
2026-04-29 12:27 31.34712 -16.38100 58044 ft 893 kts 184°
2026-04-29 12:27 31.28589 -16.38540 57743 ft 870 kts 184°
2026-04-29 12:27 31.22604 -16.38946 56674 ft 857 kts 183°
2026-04-29 12:28 31.16696 -16.39319 55688 ft 840 kts 183°
2026-04-29 12:28 31.10918 -16.39658 54784 ft 824 kts 183°
2026-04-29 12:28 31.05250 -16.39967 53820 ft 807 kts 183°
2026-04-29 12:28 30.99690 -16.40246 52847 ft 790 kts 183°
2026-04-29 12:29 30.94259 -16.40495 51876 ft 773 kts 184°
2026-04-29 12:29 30.88932 -16.40717 50929 ft 757 kts 184°
2026-04-29 12:29 30.83718 -16.40913 49986 ft 742 kts 184°
2026-04-29 12:29 30.78611 -16.41082 49067 ft 727 kts 184°
2026-04-29 12:30 30.73600 -16.41228 48128 ft 714 kts 184°
2026-04-29 12:30 30.68676 -16.41351 47194 ft 701 kts 184°
2026-04-29 12:30 30.63839 -16.41452 46269 ft 689 kts 184°
2026-04-29 12:30 30.59090 -16.41531 45365 ft 678 kts 184°
2026-04-29 12:31 30.54410 -16.41589 44503 ft 666 kts 184°
2026-04-29 12:31 30.49808 -16.41627 43657 ft 656 kts 184°
2026-04-29 12:31 30.45279 -16.41645 42894 ft 645 kts 184°
2026-04-29 12:31 30.40837 -16.41643 42151 ft 634 kts 183°
2026-04-29 12:32 30.36450 -16.41622 41436 ft 624 kts 183°
2026-04-29 12:32 30.32148 -16.41583 40738 ft 615 kts 183°
2026-04-29 12:32 30.27903 -16.41525 40058 ft 605 kts 182°
2026-04-29 12:32 30.23780 -16.41451 39352 ft 596 kts 182°
2026-04-29 12:33 30.19623 -16.41357 38503 ft 584 kts 182°
2026-04-29 12:33 30.15591 -16.41248 37423 ft 574 kts 181°
2026-04-29 12:33 30.11687 -16.41125 36252 ft 564 kts 181°
2026-04-29 12:33 30.07795 -16.40983 35167 ft 555 kts 180°
2026-04-29 12:34 30.03963 -16.40826 34237 ft 547 kts 180°
2026-04-29 12:34 30.00189 -16.40653 33126 ft 538 kts 180°
2026-04-29 12:34 29.96482 -16.40464 31852 ft 531 kts 179°
2026-04-29 12:34 29.92789 -16.40258 30528 ft 528 kts 179°
2026-04-29 12:35 29.89130 -16.40035 29553 ft 522 kts 178°
2026-04-29 12:35 29.85533 -16.39794 28652 ft 516 kts 178°
2026-04-29 12:35 29.81970 -16.39535 27749 ft 510 kts 178°
2026-04-29 12:35 29.78447 -16.39254 26834 ft 504 kts 178°
2026-04-29 12:36 29.74972 -16.38942 25939 ft 499 kts 177°
2026-04-29 12:36 29.71536 -16.38599 25303 ft 493 kts 177°
2026-04-29 12:36 29.68121 -16.38242 25064 ft 493 kts 176°
2026-04-29 12:36 29.64704 -16.37883 25037 ft 493 kts 177°
2026-04-29 12:37 29.61294 -16.37928 25025 ft 491 kts 192°
2026-04-29 12:37 29.58085 -16.39204 25030 ft 487 kts 211°
2026-04-29 12:37 29.55363 -16.41394 25041 ft 485 kts 219°
2026-04-29 12:37 29.52690 -16.43859 24848 ft 489 kts 219°
2026-04-29 12:38 29.50039 -16.46275 24534 ft 482 kts 219°
2026-04-29 12:38 29.47453 -16.48625 23543 ft 479 kts 219°
2026-04-29 12:38 29.44849 -16.50993 22663 ft 473 kts 219°
2026-04-29 12:38 29.42302 -16.53331 21781 ft 467 kts 219°
2026-04-29 12:39 29.39798 -16.55670 20875 ft 461 kts 220°
2026-04-29 12:39 29.37334 -16.57996 19997 ft 456 kts 220°
2026-04-29 12:39 29.34906 -16.60303 19137 ft 450 kts 220°
2026-04-29 12:39 29.32522 -16.62572 18368 ft 442 kts 220°
2026-04-29 12:40 29.30169 -16.64809 18009 ft 438 kts 220°
2026-04-29 12:40 29.27824 -16.67033 17941 ft 437 kts 220°
2026-04-29 12:40 29.25480 -16.69243 17939 ft 437 kts 220°
2026-04-29 12:40 29.23123 -16.71442 17939 ft 437 kts 219°
2026-04-29 12:41 29.20750 -16.73615 17939 ft 437 kts 219°
2026-04-29 12:41 29.18371 -16.75778 17939 ft 437 kts 219°
2026-04-29 12:41 29.15987 -16.77940 17939 ft 437 kts 219°
2026-04-29 12:41 29.13615 -16.80104 17939 ft 436 kts 220°
2026-04-29 12:42 29.11259 -16.82285 17939 ft 436 kts 220°
2026-04-29 12:42 29.08905 -16.84486 17939 ft 436 kts 220°
2026-04-29 12:42 29.06471 -16.86549 17745 ft 436 kts 211°
2026-04-29 12:42 29.03642 -16.87754 17264 ft 437 kts 191°
2026-04-29 12:43 29.00609 -16.88132 16756 ft 438 kts 186°
2026-04-29 12:43 28.97575 -16.88356 16229 ft 436 kts 185°
2026-04-29 12:43 28.94591 -16.88537 15708 ft 433 kts 185°
2026-04-29 12:43 28.91588 -16.88709 15101 ft 431 kts 185°
2026-04-29 12:44 28.88599 -16.88879 14256 ft 428 kts 185°
2026-04-29 12:44 28.85639 -16.89054 13483 ft 423 kts 185°
2026-04-29 12:44 28.82823 -16.89232 13266 ft 421 kts 185°
2026-04-29 12:44 28.79902 -16.89429 13066 ft 420 kts 185°
2026-04-29 12:45 28.76987 -16.89638 12866 ft 419 kts 186°
2026-04-29 12:45 28.74081 -16.89861 12666 ft 418 kts 186°
2026-04-29 12:45 28.71186 -16.90098 12466 ft 417 kts 186°
2026-04-29 12:45 28.68300 -16.90351 12266 ft 416 kts 186°
2026-04-29 12:46 28.65411 -16.90620 12066 ft 415 kts 187°
2026-04-29 12:46 28.62541 -16.90906 11866 ft 414 kts 187°
2026-04-29 12:46 28.59678 -16.91208 11666 ft 413 kts 187°
2026-04-29 12:46 28.56817 -16.91531 11466 ft 412 kts 187°
2026-04-29 12:47 28.53961 -16.91879 11265 ft 411 kts 188°
2026-04-29 12:47 28.51121 -16.92263 11065 ft 410 kts 188°
2026-04-29 12:47 28.48292 -16.92669 10865 ft 409 kts 189°
2026-04-29 12:47 28.45477 -16.93084 10665 ft 409 kts 189°
2026-04-29 12:48 28.42667 -16.93500 10463 ft 402 kts 189°
2026-04-29 12:48 28.39961 -16.93895 10260 ft 383 kts 189°
2026-04-29 12:48 28.37377 -16.94261 10055 ft 364 kts 188°
2026-04-29 12:48 28.34962 -16.94596 9848 ft 335 kts 188°
2026-04-29 12:49 28.32743 -16.94905 9640 ft 308 kts 188°
2026-04-29 12:49 28.30701 -16.95194 9429 ft 288 kts 189°
2026-04-29 12:49 28.29386 -16.95383 9297 ft 287 kts 189°
2026-04-29 12:49 28.26736 -16.95766 8792 ft 286 kts 189°
2026-04-29 12:50 28.25435 -16.95953 8471 ft 284 kts 188°
2026-04-29 12:50 28.23480 -16.96228 8072 ft 281 kts 188°
2026-04-29 12:50 28.21541 -16.96500 8024 ft 281 kts 188°
2026-04-29 12:50 28.18968 -16.96861 8024 ft 281 kts 186°
2026-04-29 12:51 28.17655 -16.96779 8010 ft 282 kts 167°
2026-04-29 12:51 28.15759 -16.96152 8029 ft 284 kts 163°
2026-04-29 12:51 28.13887 -16.95429 7881 ft 285 kts 162°
2026-04-29 12:51 28.12050 -16.94686 7448 ft 274 kts 161°
2026-04-29 12:52 28.10318 -16.93966 6988 ft 264 kts 161°
2026-04-29 12:52 28.08634 -16.93254 6623 ft 251 kts 160°
2026-04-29 12:52 28.07064 -16.92580 6402 ft 233 kts 160°
2026-04-29 12:52 28.05560 -16.91926 6205 ft 231 kts 160°
2026-04-29 12:53 28.04060 -16.91266 6008 ft 230 kts 159°
2026-04-29 12:53 28.02571 -16.90601 5991 ft 230 kts 159°
2026-04-29 12:53 28.01083 -16.89935 5939 ft 230 kts 160°
2026-04-29 12:53 27.99589 -16.89287 5737 ft 230 kts 160°
2026-04-29 12:54 27.98099 -16.88646 5343 ft 229 kts 160°
2026-04-29 12:54 27.96617 -16.88012 5042 ft 227 kts 157°
2026-04-29 12:54 27.95409 -16.86910 4819 ft 228 kts 117°
2026-04-29 12:54 27.95107 -16.85177 4622 ft 230 kts 80°
2026-04-29 12:55 27.95440 -16.83427 4434 ft 219 kts 74°
2026-04-29 12:55 27.95892 -16.81852 4242 ft 208 kts 71°
2026-04-29 12:55 27.96403 -16.80322 4012 ft 207 kts 69°
2026-04-29 12:55 27.96936 -16.78813 3833 ft 206 kts 69°
2026-04-29 12:56 27.97463 -16.77307 3613 ft 205 kts 69°
2026-04-29 12:56 27.97985 -16.75807 3360 ft 204 kts 69°
2026-04-29 12:56 27.98503 -16.74316 3072 ft 203 kts 69°
2026-04-29 12:56 27.99018 -16.72829 2799 ft 202 kts 69°
2026-04-29 12:57 27.99538 -16.71357 2567 ft 201 kts 69°
2026-04-29 12:57 28.00050 -16.69885 2353 ft 201 kts 70°
2026-04-29 12:57 28.00551 -16.68416 2165 ft 201 kts 69°
2026-04-29 12:57 28.01072 -16.66950 1858 ft 200 kts 69°
2026-04-29 12:58 28.01578 -16.65491 1528 ft 199 kts 69°
2026-04-29 12:58 28.02085 -16.64034 1275 ft 199 kts 69°
2026-04-29 12:58 28.02587 -16.62587 1010 ft 198 kts 70°
2026-04-29 12:58 28.03080 -16.61185 726 ft 180 kts 70°
2026-04-29 12:59 28.03522 -16.59907 447 ft 172 kts 71°
2026-04-29 12:59 28.03958 -16.58657 233 ft 171 kts 70°
2026-04-29 12:59 28.04390 -16.57419 195 ft 134 kts 70°
2026-04-29 12:59 28.04593 -16.56818 203 ft 53 kts 69°
2026-04-29 13:00 28.04689 -16.56589 206 ft 30 kts 50°
2026-04-29 13:00 28.04851 -16.56401 218 ft 25 kts 44°
2026-04-29 13:00 28.04933 -16.56347 227 ft 10 kts 332°
2026-04-29 13:00 28.04921 -16.56439 225 ft 15 kts 248°
2026-04-29 13:01 28.04887 -16.56537 224 ft 13 kts 249°
2026-04-29 13:01 28.04838 -16.56679 220 ft 17 kts 248°
2026-04-29 13:01 28.04798 -16.56797 217 ft 17 kts 250°
2026-04-29 13:01 28.04756 -16.56915 217 ft 14 kts 248°
2026-04-29 13:02 28.04729 -16.56990 218 ft 9 kts 249°
2026-04-29 13:02 28.04714 -16.57034 219 ft 5 kts 249°
2026-04-29 13:02 28.04705 -16.57062 220 ft 6 kts 250°
2026-04-29 13:02 28.04704 -16.57141 221 ft 10 kts 317°
2026-04-29 13:03 28.04737 -16.57163 221 ft 2 kts 334°
2026-04-29 13:03 28.04741 -16.57166 221 ft 5 kts 334°
2026-04-29 13:03 28.04778 -16.57195 221 ft 6 kts 308°
2026-04-29 13:03 28.04779 -16.57270 221 ft 9 kts 250°
2026-04-29 13:04 28.04765 -16.57310 221 ft 6 kts 249°
2026-04-29 13:04 28.04735 -16.57398 221 ft 12 kts 248°
2026-04-29 13:04 28.04701 -16.57496 221 ft 13 kts 249°
2026-04-29 13:04 28.04677 -16.57563 221 ft 5 kts 248°
2026-04-29 13:05 28.04655 -16.57643 221 ft 6 kts 277°
2026-04-29 13:05 28.04663 -16.57655 221 ft 0 kts 316°
2026-04-29 13:05 28.04676 -16.57663 221 ft 1 kts 334°
2026-04-29 13:05 28.04693 -16.57671 221 ft 4 kts 336°
2026-04-29 13:06 28.04701 -16.57675 221 ft 4 kts 337°
2026-04-29 13:06 28.04704 -16.57676 221 ft 0 kts 337°